This is the latest recevied weather packets stored in our database for station/object W0AKO. If no packets are shown the sender has not sent any weather packets the latest 10 day(s).
| Time | Temp. | Humidity | Pressure | Rain* | Wind** | Luminosity | Snow |
|---|---|---|---|---|---|---|---|
| 1777490904 | 23.33° C | 10% | 1018.1 hPa | 0 mm | - | 573 W/m² | - |
| 1777490600 | 23.33° C | 10% | 1018.4 hPa | 0 mm | - | 603 W/m² | - |
| 1777490296 | 23.33° C | 10% | 1018.4 hPa | 0 mm | - | 654 W/m² | - |
| 1777489994 | 22.78° C | 10% | 1018.3 hPa | 0 mm | - | 706 W/m² | - |
| 1777489692 | 22.78° C | 10% | 1018.4 hPa | 0 mm | - | 711 W/m² | - |
| 1777489388 | 22.22° C | 10% | 1018.7 hPa | 0 mm | - | 697 W/m² | - |
| 1777489085 | 22.22° C | 10% | 1019 hPa | 0 mm | - | 667 W/m² | - |
| 1777488781 | 23.89° C | 10% | 1018.8 hPa | 0 mm | - | 681 W/m² | - |
| 1777488480 | 23.89° C | 10% | 1019 hPa | 0 mm | - | 712 W/m² | - |
| 1777488177 | 23.33° C | 10% | 1018.9 hPa | 0 mm | - | 750 W/m² | - |
| 1777487875 | 22.78° C | 10% | 1019.2 hPa | 0 mm | - | 780 W/m² | - |
| 1777487573 | 21.67° C | 10% | 1019.2 hPa | 0 mm | - | 809 W/m² | - |
| 1777487269 | 22.22° C | 10% | 1019.2 hPa | 0 mm | - | 799 W/m² | - |
| 1777486966 | 21.67° C | 10% | 1019.2 hPa | 0 mm | - | 803 W/m² | - |
| 1777486663 | 21.11° C | 10% | 1019.6 hPa | 0 mm | - | 812 W/m² | - |
| 1777486361 | 22.22° C | 10% | 1019.9 hPa | 0 mm | - | 822 W/m² | - |
| 1777486058 | 21.11° C | 10% | 1019.4 hPa | 0 mm | - | 837 W/m² | - |
| 1777485754 | 20.56° C | 10% | 1019.7 hPa | 0 mm | - | 837 W/m² | - |
| 1777485450 | 20.56° C | 10% | 1019.6 hPa | 0 mm | - | 844 W/m² | - |
| 1777485146 | 20.56° C | 10% | 1019.6 hPa | 0 mm | - | 829 W/m² | - |
| 1777484842 | 20° C | 10% | 1019.6 hPa | 0 mm | - | 855 W/m² | - |
| 1777484540 | 20° C | 10% | 1019.9 hPa | 0 mm | - | 848 W/m² | - |
| 1777484237 | 20.56° C | 10% | 1019.6 hPa | 0 mm | - | 810 W/m² | - |
| 1777483933 | 20° C | 10% | 1020 hPa | 0 mm | - | 777 W/m² | - |
| 1777483629 | 20° C | 10% | 1019.9 hPa | 0 mm | - | 774 W/m² | - |
* Rain latest hour (hover to see other rain measurements)
** Current wind speed in m/s (hover to see current wind gust speed)